Regional Weather Roundup
Issued by NWS

Home | Current Version | Previous Version | Graphics & Text | Print | Product List | Glossary On
Versions: 1 2 3 4 5 6 7 8 9 10 11 12 13 14 15 16 17 18 19 20 21 22 23 24 25 26 27 28 29 30 31 32 33 34 35 36 37 38 39 40 41 42 43 44 45 46 47 48 49 50
993
ASUS44 KLIX 301101
RWRLA
LOUISIANA WEATHER ROUNDUP
NATIONAL WEATHER SERVICE NEW ORLEANS LA
600 AM CDT THU OCT 30 2014

NOTE: "FAIR" INDICATES FEW OR NO CLOUDS BELOW 12,000 FEET WITH NO
      SIGNIFICANT WEATHER AND/OR OBSTRUCTIONS TO VISIBILITY.
      SKY/WX - SKY CONDITION AND SIGNIFICANT WEATHER.
      TMP - AIR TEMPERATURE.    DP   - DEWPOINT TEMPERATURE.
      RH  - RELATIVE HUMIDITY.  PRES - PRESSURE.
      HX  - HEAT INDEX.         WCI  - WIND CHILL INDEX.

*  THESE STATIONS ARE NOT NWS OR FAA STATIONS AND ARE NOT UNDER
   NWS QUALITY CONTROL.

LAZ040-048-061>063-065-066-069-301200-
SOUTHEAST LOUISIANA

CITY           SKY/WX    TMP DP  RH WIND       PRES   REMARKS
N.O. AUDUBON   NOT AVBL
N.O. INTL ARPT PTCLDY    65  46  50 NE14      30.08R
N.O. LAKEFRONT PTCLDY    66  48  52 NE17      30.08R
N.O. DOWNTOWN* FAIR      64  45  48 N6        30.08R
SLIDELL        CLEAR     53  47  79 N6        30.08R
BATON ROUGE    CLEAR     51  46  83 NE5       30.10R
BOOTHVILLE     CLOUDY    69  59  70 NE10      30.04S
BELLE CHASSE   MOCLDY    62  48  60 N6        30.07R
BOGALUSA*        N/A     49  45  86 N5        30.11R
NEW ROADS*     FAIR      50  45  82 N3        30.11R
GONZALES*      FAIR      56  52  86 N3        30.09R
HAMMOND*       NOT AVBL
HOUMA*         PTCLDY    61  54  77 N7        30.07R
PORT FOURCHON* CLOUDY    70  59  68 NE13G21   30.08R

$$

LAZ041-044-053-054-301200-
SOUTHWEST LOUISIANA

CITY           SKY/WX    TMP DP  RH WIND       PRES   REMARKS
LAKE CHARLES   CLEAR     53  47  79 NE7       30.09S
LAFAYETTE      CLEAR     52  49  89 NE5       30.10R
PATTERSON      FAIR      59  54  82 N7        30.10R
SALT POINT       N/A     60  55  83 CALM      30.06R
NEW IBERIA     CLEAR     58  50  75 NE9       30.10R
CHENAULT AIRPK NOT AVBL

$$

LAZ027-028-301200-
CENTRAL LOUISIANA

CITY           SKY/WX    TMP DP  RH WIND       PRES   REMARKS
FORT POLK      CLEAR     53  45  74 E6        30.11S
ALEXANDRIA INT CLEAR     44  42  93 CALM      30.11S
ALEXANDRIA     PTCLDY    42  40  92 CALM      30.13R

$$

LAZ001-002-301200-
NORTHWEST LOUISIANA

CITY           SKY/WX    TMP DP  RH WIND       PRES   REMARKS
SHREVEPORT     CLEAR     45  43  93 CALM      30.14S
BARKSDALE AFB  CLEAR     46  44  94 CALM      30.15R
DTN SHREVEPORT CLEAR     45  43  93 CALM      30.15S FOG

$$

LAZ014-016-301200-
NORTHEAST LOUISIANA

CITY           SKY/WX    TMP DP  RH WIND       PRES   REMARKS
MONROE         CLEAR     45  44  97 CALM      30.15S
TALLULAH       CLEAR     42  40  92 CALM      30.14R

$$




USA.gov is the U.S. government's official web portal to all federal, state and local government web resources and services.